Clarksville, TN

1:46 PM CDT on June 28, 2017 (GMT -0500)
Outlaw

Weather History for KCKV - August, 2012

Change the Weather History Date:

Sunday, August 26, 2012

  Actual Average Record
Temperature  
Mean Temperature 77 °F 76 °F  
Max Temperature 89 °F 88 °F 100 °F (1948)
Min Temperature 65 °F 64 °F 49 °F (1982)
Degree Days  
Heating Degree Days 0 0  
Month to date heating degree days 0 0  
Since 1 June heating degree days 3  
Since 1 July heating degree days 0 0  
Cooling Degree Days 12 11  
Month to date cooling degree days 299 325  
Year to date cooling degree days 1168  
Since 1 June cooling degree days 1019  
Growing Degree Days 27 (Base 50)    
Moisture  
Dew Point 67 °F    
Average Humidity 72    
Maximum Humidity 93    
Minimum Humidity 50    
Precipitation  
Precipitation T in 0.10 in 1.87 in (2005)
Month to date precipitation 1.33 2.59  
Year to date precipitation 32.61  
Sea Level Pressure  
Sea Level Pressure 30.08 in    
Wind  
Wind Speed 3 mph (South)    
Max Wind Speed 14 mph    
Max Gust Speed 18 mph    
Visibility 8 miles    
Events      
T = Trace of Precipitation, MM = Missing Value Source: NWS Daily Summary

Daily Weather History Graph

Daily Weather History Graph

Search for Another Location

Airport or City:

Trip Planner

Search our weather history database for the weather conditions in past years. The results will help you decide how hot, cold, wet, or windy it might be!

Date:

Astronomy

Aug. 26, 2012 Rise Set
Actual Time 6:16 AM CDT 7:25 PM CDT
Civil Twilight 5:49 AM CDT 7:52 PM CDT
Nautical Twilight 5:17 AM CDT 8:23 PM CDT
Astronomical Twilight 4:44 AM CDT 8:56 PM CDT
Moon 3:50 PM CDT (8/26) 1:02 AM CDT (8/26)
Length of Visible Light 14h 02m
Length of Day
13h 09m
Waxing Gibbous, 73% of the Moon is Illuminated
Aug 26
Waxing Gibbous
Aug 31
Full
Sep 8
Last Quarter
Sep 15
New
Sep 22
First Quarter

Hourly Weather History & Observations

Time (CDT) Temp. Heat Index Dew Point Humidity Pressure Visibility Wind Dir Wind Speed Gust Speed Precip Events Conditions
12:52 AM 68.0 °F - 66.0 °F 93% 30.07 in 6.0 mi ESE 3.5 mph - N/A   Clear
1:52 AM 68.0 °F - 66.0 °F 93% 30.06 in 6.0 mi ESE 4.6 mph - N/A   Clear
2:52 AM 66.9 °F - 64.9 °F 93% 30.07 in 4.0 mi Calm Calm - N/A   Clear
3:52 AM 66.9 °F - 64.9 °F 93% 30.08 in 5.0 mi Calm Calm - N/A   Clear
4:52 AM 66.0 °F - 64.9 °F 96% 30.09 in 5.0 mi ESE 3.5 mph - N/A   Clear
5:52 AM 66.9 °F - 64.9 °F 93% 30.11 in 5.0 mi ESE 3.5 mph - N/A   Clear
6:52 AM 69.1 °F - 66.9 °F 93% 30.12 in 4.0 mi Calm Calm - N/A   Mostly Cloudy
7:52 AM 73.0 °F - 68.0 °F 84% 30.14 in 9.0 mi South 3.5 mph - N/A   Scattered Clouds
8:52 AM 75.9 °F - 68.0 °F 76% 30.13 in 10.0 mi Calm Calm - N/A   Mostly Cloudy
9:52 AM 81.0 °F 84.1 °F 69.1 °F 67% 30.14 in 10.0 mi South 6.9 mph - N/A   Mostly Cloudy
10:52 AM 82.9 °F 85.8 °F 68.0 °F 60% 30.14 in 10.0 mi SSW 6.9 mph - N/A   Mostly Cloudy
11:52 AM 84.9 °F 88.8 °F 69.1 °F 59% 30.13 in 10.0 mi South 6.9 mph - N/A   Scattered Clouds
12:52 PM 84.0 °F 88.4 °F 70.0 °F 63% 30.11 in 10.0 mi Variable 3.5 mph - 0.00 in   Overcast
1:52 PM 86.0 °F 89.4 °F 68.0 °F 55% 30.09 in 10.0 mi SW 6.9 mph - N/A   Mostly Cloudy
2:52 PM 87.1 °F 89.9 °F 66.9 °F 51% 30.06 in 10.0 mi South 6.9 mph - N/A   Clear
3:52 PM 86.0 °F 88.2 °F 66.0 °F 51% 30.04 in 10.0 mi South 6.9 mph - N/A   Partly Cloudy
4:52 PM 88.0 °F 90.7 °F 66.9 °F 49% 30.03 in 10.0 mi South 5.8 mph - N/A   Mostly Cloudy
5:52 PM 86.0 °F 88.8 °F 66.9 °F 53% 30.02 in 10.0 mi SSW 4.6 mph - N/A   Scattered Clouds
6:52 PM 84.9 °F 88.2 °F 68.0 °F 57% 30.01 in 10.0 mi South 3.5 mph - N/A   Clear
7:52 PM 81.0 °F 83.8 °F 68.0 °F 65% 30.02 in 10.0 mi SSW 3.5 mph - N/A   Clear
8:52 PM 78.1 °F - 66.9 °F 68% 30.04 in 10.0 mi Calm Calm - N/A   Clear
9:52 PM 75.9 °F - 66.9 °F 74% 30.05 in 10.0 mi Calm Calm - N/A   Clear
10:52 PM 73.9 °F - 69.1 °F 85% 30.05 in 10.0 mi SSE 3.5 mph - N/A   Clear
11:52 PM 73.0 °F - 68.0 °F 84% 30.05 in 10.0 mi Calm Calm - N/A   Clear